Weather reports worldwide

Advertisment
Cordoba Aeropuerto (AWS), Spain (8410): temperature & dewpoint: 09.12.2019 19:00:00 - 15.12.2019 19:00:00 (CET)Cordoba Aeropuerto (AWS), Spain (8410): wind speed: 09.12.2019 19:00:00 - 15.12.2019 19:00:00 (CET)Cordoba Aeropuerto (AWS), Spain (8410): wind direction: 09.12.2019 19:00:00 - 15.12.2019 19:00:00 (CET)Cordoba Aeropuerto (AWS), Spain (8410): reduced air pressure: 09.12.2019 19:00:00 - 15.12.2019 19:00:00 (CET)Cordoba Aeropuerto (AWS), Spain (8410): visibility: 09.12.2019 19:00:00 - 15.12.2019 19:00:00 (CET)
Date & Time tt [°C] td [°C] ff [km/h] ff [kn] dd ppp [hPa] vv [km]
15.12.2019 19:00:00 12,8 8,3 0 0 N 1013,3 -
15.12.2019 18:00:00 14,9 8,4 0 0 N 1013,5 -
15.12.2019 17:00:00 16,6 7,0 0 0 N 1014,1 -
15.12.2019 16:00:00 17,1 6,9 4 2 SE 1014,6 30
15.12.2019 15:00:00 17,0 6,4 4 2 SSW 1015,2 -
15.12.2019 14:00:00 16,8 7,4 4 2 SSW 1016,4 -
15.12.2019 13:00:00 15,1 8,1 4 2 N 1017,8 -
15.12.2019 12:00:00 14,5 8,1 5 3 E 1018,8 -
15.12.2019 11:00:00 13,0 8,5 5 3 E 1019,6 -
15.12.2019 10:00:00 10,5 8,1 0 0 N 1019,7 -
15.12.2019 09:00:00 9,7 8,0 0 0 N 1019,2 -
15.12.2019 08:00:00 9,8 7,9 4 2 S 1019,2 -
15.12.2019 07:00:00 10,0 8,3 4 2 S 1018,9 25
15.12.2019 06:00:00 10,0 8,4 0 0 N 1018,7 -
15.12.2019 05:00:00 11,1 9,4 0 0 N 1018,8 -
15.12.2019 04:00:00 11,4 9,5 2 1 SSW 1019,4 -
15.12.2019 03:00:00 11,5 9,6 0 0 N 1019,6 -
15.12.2019 02:00:00 11,8 9,4 0 0 N 1019,9 -
15.12.2019 01:00:00 11,9 9,5 0 0 N 1020,7 -
15.12.2019 00:00:00 12,2 9,0 0 0 N 1020,9 -
14.12.2019 23:00:00 12,2 9,0 2 1 S 1020,9 -
14.12.2019 22:00:00 13,0 8,7 2 1 WSW 1020,8 -
14.12.2019 21:00:00 13,4 8,7 5 3 S 1021,2 -
14.12.2019 20:00:00 13,6 9,2 4 2 E 1021,1 -
14.12.2019 19:00:00 14,5 8,9 5 3 WSW 1021,1 30
14.12.2019 18:00:00 15,5 8,4 5 3 WNW 1021,0 -
14.12.2019 17:00:00 16,3 7,3 5 3 WNW 1020,9 -
14.12.2019 16:00:00 16,4 7,3 5 3 ENE 1020,9 30
14.12.2019 15:00:00 16,3 7,6 8 4 SSW 1021,1 -
14.12.2019 14:00:00 16,1 7,0 5 3 SE 1021,7 -
14.12.2019 13:00:00 16,1 6,9 4 2 NNW 1022,3 30
14.12.2019 12:00:00 15,2 6,7 5 3 NNE 1023,4 -
14.12.2019 11:00:00 14,1 8,6 5 3 WNW 1023,7 -
14.12.2019 10:00:00 13,0 9,3 5 3 W 1023,3 25
14.12.2019 09:00:00 12,6 8,8 0 0 N 1022,8 -
14.12.2019 08:00:00 13,0 8,3 8 4 W 1022,5 -
14.12.2019 07:00:00 12,9 8,9 13 7 WNW 1022,2 -
14.12.2019 06:00:00 12,3 10,9 0 0 N 1022,0 -
14.12.2019 05:00:00 12,3 10,9 5 3 W 1022,1 -
14.12.2019 04:00:00 12,3 10,9 9 5 WNW 1022,7 -
14.12.2019 03:00:00 12,6 11,0 8 4 SW 1022,7 -
14.12.2019 02:00:00 12,6 11,2 9 5 W 1022,8 -
14.12.2019 01:00:00 12,4 11,1 9 5 WSW 1023,3 -
14.12.2019 00:00:00 11,9 10,5 5 3 W 1023,2 -
13.12.2019 23:00:00 12,8 10,9 9 5 W 1023,0 -
13.12.2019 22:00:00 14,4 11,5 8 4 WSW 1022,8 -
13.12.2019 21:00:00 14,6 11,6 8 4 W 1022,8 -
13.12.2019 20:00:00 15,0 11,4 8 4 W 1022,7 -
13.12.2019 19:00:00 15,5 11,3 13 7 WSW 1022,6 20
13.12.2019 18:00:00 16,3 10,2 9 5 WSW 1022,1 -
13.12.2019 17:00:00 17,8 10,1 13 7 W 1021,9 -
13.12.2019 16:00:00 17,6 11,7 15 8 SW 1021,8 30
13.12.2019 15:00:00 16,2 11,7 24 13 W 1022,1 -
13.12.2019 14:00:00 16,0 12,2 24 13 WSW 1022,5 -
13.12.2019 13:00:00 15,4 12,0 18 10 W 1023,6 25
13.12.2019 12:00:00 14,5 11,8 13 7 W 1023,9 -
13.12.2019 11:00:00 13,6 11,5 11 6 W 1023,9 -
13.12.2019 10:00:00 12,8 11,4 16 9 WSW 1023,1 20
13.12.2019 09:00:00 12,0 10,9 5 3 W 1022,7 -
13.12.2019 08:00:00 12,1 11,0 9 5 SW 1022,5 -
13.12.2019 07:00:00 12,3 11,0 9 5 WSW 1021,7 15
13.12.2019 06:00:00 12,5 11,2 11 6 WSW 1021,6 -
13.12.2019 05:00:00 12,7 11,1 16 9 WSW 1021,5 -
13.12.2019 04:00:00 12,8 11,2 18 10 WSW 1021,7 -
13.12.2019 03:00:00 12,8 11,0 21 11 W 1022,0 -
13.12.2019 02:00:00 11,9 10,3 11 6 W 1021,7 -
13.12.2019 01:00:00 12,0 9,7 11 6 W 1022,4 -
13.12.2019 00:00:00 12,3 9,4 15 8 WSW 1022,7 -
12.12.2019 23:00:00 12,1 9,1 13 7 WSW 1022,8 -
12.12.2019 22:00:00 12,8 8,9 15 8 WSW 1022,7 -
12.12.2019 21:00:00 12,6 8,5 13 7 SW 1022,7 -
12.12.2019 20:00:00 13,0 7,7 13 7 WSW 1022,8 -
12.12.2019 19:00:00 13,5 7,5 16 9 SW 1023,1 20
12.12.2019 18:00:00 13,9 7,3 13 7 SW 1023,2 -
12.12.2019 17:00:00 14,1 7,4 15 8 WSW 1023,0 -
12.12.2019 16:00:00 13,8 7,7 13 7 WSW 1024,1 -
12.12.2019 15:00:00 13,9 7,1 18 10 WSW 1024,4 -
12.12.2019 14:00:00 13,0 6,4 15 8 WSW 1025,3 -
12.12.2019 13:00:00 10,7 5,1 13 7 WSW 1026,9 20
12.12.2019 12:00:00 10,0 5,2 9 5 WSW 1028,2 -
12.12.2019 11:00:00 8,4 4,6 8 4 W 1029,0 -
12.12.2019 10:00:00 6,3 4,6 4 2 ENE 1028,0 15
12.12.2019 09:00:00 3,2 2,5 4 2 N 1028,2 -
12.12.2019 08:00:00 2,5 1,8 0 0 N 1028,0 -
12.12.2019 07:00:00 2,9 2,2 4 2 NW 1027,7 20
12.12.2019 06:00:00 2,7 1,9 5 3 S 1027,7 -
12.12.2019 05:00:00 2,2 1,3 4 2 S 1027,9 -
12.12.2019 04:00:00 2,6 1,7 4 2 SSW 1028,4 -
12.12.2019 03:00:00 2,6 1,6 4 2 SW 1028,2 -
12.12.2019 02:00:00 3,6 2,6 0 0 N 1028,4 -
12.12.2019 01:00:00 4,2 3,2 0 0 N 1028,6 -
12.12.2019 00:00:00 4,6 3,4 4 2 W 1028,6 -
11.12.2019 23:00:00 5,6 4,1 4 2 SW 1028,7 -
11.12.2019 22:00:00 6,5 4,5 8 4 SSW 1028,5 -
11.12.2019 21:00:00 8,2 5,1 4 2 W 1028,3 -
11.12.2019 20:00:00 10,6 5,6 4 2 SSW 1027,9 -
11.12.2019 19:00:00 12,2 5,9 11 6 NW 1027,5 30
11.12.2019 18:00:00 13,7 7,0 15 8 NW 1026,3 -
11.12.2019 17:00:00 14,3 9,3 11 6 WSW 1025,5 -
11.12.2019 16:00:00 15,5 8,8 13 7 SW 1024,8 20
11.12.2019 15:00:00 14,9 7,4 4 2 NW 1024,9 -
11.12.2019 14:00:00 12,7 7,0 5 3 NNW 1025,5 -
11.12.2019 13:00:00 11,9 6,0 4 2 WSW 1026,6 15
11.12.2019 12:00:00 9,8 5,8 2 1 NE 1027,5 -
11.12.2019 11:00:00 8,8 6,1 4 2 SE 1027,8 -
11.12.2019 10:00:00 5,1 3,9 0 0 N 1027,5 10
11.12.2019 09:00:00 3,1 2,2 0 0 N 1027,4 -
11.12.2019 08:00:00 2,9 2,0 4 2 S 1026,9 -
11.12.2019 07:00:00 3,1 2,2 0 0 N 1026,8 20
11.12.2019 06:00:00 3,4 2,4 0 0 N 1026,2 -
11.12.2019 05:00:00 3,6 2,6 0 0 N 1026,3 -
11.12.2019 04:00:00 4,0 3,0 2 1 W 1026,5 -
11.12.2019 03:00:00 4,4 3,4 0 0 N 1026,5 -
11.12.2019 02:00:00 4,9 3,7 2 1 SE 1026,6 -
11.12.2019 01:00:00 5,5 4,1 4 2 NNE 1026,8 -
11.12.2019 00:00:00 6,0 4,3 2 1 NE 1027,0 -
10.12.2019 23:00:00 6,9 5,2 4 2 WSW 1026,9 -
10.12.2019 22:00:00 7,7 5,8 4 2 SW 1026,7 -
10.12.2019 21:00:00 9,0 6,3 0 0 N 1026,5 -
10.12.2019 20:00:00 10,3 7,0 2 1 ESE 1026,5 -
10.12.2019 19:00:00 12,2 7,1 2 1 NNW 1026,2 30
10.12.2019 18:00:00 15,1 5,7 4 2 S 1025,7 -
10.12.2019 17:00:00 19,5 2,9 0 0 N 1025,7 -
10.12.2019 16:00:00 19,1 2,4 4 2 ESE 1025,9 30
10.12.2019 15:00:00 17,8 2,4 13 7 E 1026,4 -
10.12.2019 14:00:00 17,1 4,0 15 8 E 1027,2 -
10.12.2019 13:00:00 15,5 4,3 11 6 E 1028,4 30
10.12.2019 12:00:00 13,4 6,0 13 7 E 1029,5 -
10.12.2019 11:00:00 11,6 6,6 13 7 E 1029,6 -
10.12.2019 10:00:00 9,4 6,8 9 5 E 1029,4 25
10.12.2019 09:00:00 7,1 6,2 8 4 SE 1029,3 -
10.12.2019 08:00:00 5,5 4,8 4 2 ESE 1029,6 -
10.12.2019 07:00:00 5,8 5,1 2 1 ENE 1029,9 -
10.12.2019 06:00:00 5,6 4,7 4 2 NE 1029,6 -
10.12.2019 05:00:00 6,5 5,6 4 2 NNE 1029,4 -
10.12.2019 04:00:00 6,7 5,6 0 0 N 1029,9 -
10.12.2019 03:00:00 8,0 7,0 2 1 NNE 1030,0 -
10.12.2019 02:00:00 8,4 7,5 4 2 E 1029,9 -
10.12.2019 01:00:00 8,9 7,8 4 2 ESE 1030,3 -
10.12.2019 00:00:00 9,6 8,5 4 2 ESE 1030,3 -
09.12.2019 23:00:00 10,2 8,8 2 1 ENE 1030,0 -
09.12.2019 22:00:00 11,0 9,3 2 1 WNW 1030,0 -
09.12.2019 21:00:00 11,6 9,8 4 2 SSW 1029,5 -
09.12.2019 20:00:00 12,7 10,2 4 2 E 1029,2 -
09.12.2019 19:00:00 13,9 10,3 0 0 N 1029,1 25

tt = temperature
td = dewpoint
ff = wind speed
dd = wind direction
ppp = reduced air pressure
vv = visibility

Next stations